Tracking 17145 objects as of 23-May-2015
HD Live streaming from Space Station

NAVSTAR 37 (USA 117)

Track NAVSTAR 37 (USA 117) now!
NAVSTAR 37 (USA 117) is classified as:


NORAD ID: 23833
Int'l Code: 1996-019A
Perigee: 20,704.1 km
Apogee: 20,750.9 km
Inclination: 54.0 °
Period: 739.9 minutes
Semi major axis: 27098 km
RCS: 4.1981 m2 (large)
Launch date: March 28, 1996
Source: United States (US)
PRN:
Your satellite tracking list
Your tracking list is empty





NASA's NSSDC Master Catalog

Two Line Element Set (TLE):
1 23833U 96019A   15142.46237838 -.00000062  00000-0  00000+0 0  9996
2 23833 054.0064 061.9245 0008646 279.6960 228.1606 01.94618903140203

Source of the keplerian elements: AFSPC

N2YO: 330